Temp
4 3 3 4 5 7 8 7 8 8 7 8 8 8 8 9 9 9 9 9 9 9 9 8 8 8 8 8 8 7 7 7 7 7 7 7 7 7 7 7 7 6 6 6
2 2 4 4 4 6 7 8 8 7 7 8 7 8 7 9 9 9 9 9 9 9 8 8 8 8 8 8 7 7 7 7 7 7 6 7 7 7 6 6 6 6 6 6
1 3 3 4 4 4 6 7 8 7 7 7 6 6 6 9 9 8 8 9 8 8 9 8 8 8 8 8 8 7 7 7 7 6 7 7 6 6 6 6 6 5 5 5
1 3 3 4 4 6 5 6 7 6 7 7 7 9 8 9 9 8 8 8 9 9 9 9 8 8 8 8 8 7 7 7 7 6 6 6 6 6 6 5 5 5 4 4
2 3 3 3 5 6 5 5 6 6 6 6 6 6 10 7 9 9 9 9 9 9 9 9 9 9 8 7 7 7 7 7 7 6 6 6 5 6 6 5 4 4 4 4
2 2 3 5 4 5 5 5 5 5 5 5 7 7 9 9 9 10 10 9 9 9 9 9 9 9 8 7 7 7 7 6 6 6 6 5 5 5 5 4 4 4 4 4
1 2 3 3 3 3 4 4 4 4 3 6 7 6 8 8 9 9 10 10 10 9 9 9 9 9 9 8 7 7 6 6 5 5 5 4 4 4 3 3 3 3 3 4
1 1 2 2 3 3 3 5 4 4 5 6 4 4 7 7 8 8 9 9 9 9 9 9 9 9 8 8 7 6 6 6 5 5 4 4 3 3 3 3 3 2 2 2
2 2 2 3 3 4 2 4 6 5 4 7 5 6 6 7 8 9 9 9 9 9 9 9 8 8 7 7 7 6 6 5 5 4 4 3 3 3 2 2 2 2 2 2
3 3 2 3 2 2 3 4 3 4 3 5 7 6 7 8 9 9 9 9 9 9 9 8 8 7 7 6 6 6 5 5 4 4 3 3 3 2 2 2 2 2 1 1
3 4 1 1 2 2 2 3 4 5 6 5 7 7 8 9 9 9 9 9 9 9 8 8 7 6 5 5 5 5 5 4 4 3 3 3 2 2 2 2 1 1 1 1
2 3 0 2 1 2 3 4 4 5 5 5 6 8 8 8 9 9 9 9 9 9 8 8 7 7 5 4 4 4 4 4 3 3 3 2 2 1 1 1 1 1 0 0
1 2 1 -0 -0 1 2 3 3 4 6 5 5 7 8 8 8 8 8 8 8 8 8 8 7 6 5 4 4 3 3 3 2 2 2 1 1 1 0 0 -0 -0 -0 -0
2 2 2 2 3 2 -0 1 2 3 4 5 5 7 8 8 8 8 8 8 8 8 7 6 6 5 4 3 2 2 2 2 1 1 1 0 0 -0 -1 -1 -1 -1 -1 -1
1 2 2 3 4 3 4 3 2 3 4 4 6 5 6 7 7 7 7 7 7 7 7 6 5 4 3 2 1 1 1 1 0 -0 -1 -1 -1 -1 -1 -1 -1 -1 -2 -2
-0 1 2 3 4 3 2 2 2 4 4 3 5 5 5 5 6 6 6 6 6 6 6 5 4 3 1 1 0 -0 -0 -1 -1 -1 -1 -2 -2 -2 -2 -2 -2 -3 -3 -3
-1 -1 1 1 2 0 -1 2 3 4 4 4 3 5 4 5 5 5 6 5 5 5 5 5 4 2 0 -0 -1 -1 -2 -2 -2 -2 -2 -2 -3 -3 -3 -3 -3 -4 -4 -4
-0 -1 -0 1 0 -2 2 3 3 3 4 4 4 3 4 4 4 3 4 4 4 4 4 4 2 1 -0 -1 -2 -2 -2 -2 -3 -3 -3 -3 -4 -4 -4 -4 -4 -4 -5 -5
-3 -2 -1 -1 -2 1 1 2 2 2 3 3 4 3 3 3 4 3 3 3 3 3 3 2 1 -1 -2 -2 -2 -3 -3 -3 -4 -4 -4 -5 -5 -5 -5 -5 -6 -6 -6 -6
-3 -3 -3 -3 -1 -1 1 2 2 2 1 3 3 3 3 3 3 3 3 2 2 2 1 0 -1 -2 -3 -3 -3 -4 -4 -5 -5 -6 -6 -6 -6 -6 -7 -6 -6 -6 -6 -6
-4 -4 -4 -4 -3 -2 0 1 1 -0 2 2 3 3 3 3 3 3 2 2 1 1 1 -0 -2 -3 -4 -4 -4 -5 -6 -7 -7 -7 -7 -7 -8 -8 -7 -7 -7 -7 -7 -7
-3 -4 -4 -3 -3 -2 0 0 0 1 2 2 2 3 3 2 2 1 1 1 1 1 -0 -1 -3 -4 -5 -5 -6 -7 -8 -8 -8 -8 -8 -9 -9 -8 -8 -8 -8 -8 -9 -8
-3 -2 -2 -2 -2 -2 -1 -0 0 0 1 1 2 1 1 1 1 1 2 1 1 1 -0 -3 -5 -6 -7 -8 -8 -9 -9 -9 -9 -9 -10 -9 -8 -8 -9 -9 -9 -9 -9 -9
-3 -2 -2 -1 -1 -1 -1 -1 -1 -0 0 0 -0 -0 -0 0 0 1 1 1 -0 -2 -4 -6 -6 -6 -6 -8 -9 -10 -9 -10 -10 -9 -9 -9 -9 -9 -10 -10 -10 -9 -9 -9
-3 -3 -3 -2 -2 -2 -2 -2 -1 -1 -1 -1 -2 -2 -1 -1 -1 -1 -2 -2 -3 -5 -5 -6 -7 -9 -10 -10 -9 -10 -11 -10 -9 -9 -10 -10 -10 -10 -10 -10 -10 -10 -10 -10
-3 -3 -3 -3 -2 -2 -2 -3 -3 -3 -3 -3 -3 -2 -2 -2 -3 -3 -5 -5 -6 -6 -8 -10 -10 -10 -9 -10 -10 -10 -10 -10 -10 -10 -11 -11 -11 -11 -10 -10 -10 -10 -10 -10
Height
3065 3068 3065 3074 3082 3090 3093 3097 3100 3105 3103 3108 3111 3114 3114 3117 3119 3122 3124 3127 3129 3131 3133 3136 3138 3140 3142 3144 3146 3148 3150 3152 3154 3156 3157 3158 3159 3160 3161 3161 3162 3163 3163 3163
3061 3054 3068 3077 3081 3086 3089 3093 3098 3097 3100 3105 3108 3110 3111 3112 3115 3117 3120 3122 3125 3127 3130 3132 3134 3137 3138 3141 3143 3144 3146 3148 3150 3152 3153 3154 3155 3156 3157 3158 3159 3160 3160 3161
3052 3059 3068 3072 3077 3082 3085 3088 3093 3097 3098 3101 3105 3106 3106 3107 3110 3112 3115 3118 3121 3124 3126 3128 3130 3132 3135 3136 3139 3141 3142 3144 3146 3148 3149 3151 3152 3153 3154 3155 3157 3157 3157 3158
3053 3061 3061 3066 3070 3078 3082 3086 3090 3092 3095 3098 3099 3099 3099 3101 3105 3107 3110 3113 3116 3119 3121 3123 3125 3127 3130 3133 3135 3137 3139 3140 3142 3144 3146 3147 3148 3149 3150 3152 3153 3154 3154 3154
3046 3050 3057 3061 3064 3074 3081 3083 3087 3090 3094 3095 3095 3099 3095 3097 3096 3101 3105 3108 3111 3114 3116 3118 3120 3123 3125 3128 3131 3133 3134 3136 3138 3140 3142 3143 3144 3145 3147 3149 3149 3150 3150 3150
3047 3048 3055 3057 3065 3070 3074 3080 3086 3089 3091 3091 3091 3094 3089 3088 3093 3096 3099 3102 3106 3108 3110 3112 3115 3117 3120 3123 3126 3129 3131 3133 3136 3137 3138 3139 3140 3143 3144 3145 3145 3145 3145 3145
3038 3043 3045 3052 3058 3063 3068 3076 3084 3089 3089 3085 3084 3088 3084 3084 3086 3089 3092 3096 3100 3103 3105 3108 3111 3113 3115 3117 3120 3123 3126 3128 3130 3133 3134 3136 3138 3139 3140 3141 3142 3141 3141 3141
3031 3040 3038 3043 3050 3053 3061 3065 3068 3072 3075 3077 3081 3077 3074 3078 3083 3084 3087 3091 3095 3097 3101 3104 3107 3109 3110 3112 3115 3118 3121 3124 3126 3128 3130 3132 3134 3135 3137 3137 3138 3138 3138 3138
3025 3034 3035 3042 3046 3052 3058 3059 3068 3069 3070 3073 3069 3071 3072 3073 3077 3080 3083 3087 3090 3093 3096 3098 3101 3103 3105 3108 3111 3113 3116 3118 3121 3123 3125 3127 3129 3131 3132 3133 3133 3133 3133 3133
3020 3029 3032 3037 3044 3046 3047 3058 3065 3063 3067 3066 3062 3065 3061 3065 3071 3073 3076 3081 3085 3088 3090 3093 3096 3099 3101 3104 3106 3108 3110 3113 3115 3118 3120 3123 3124 3125 3126 3127 3127 3128 3129 3129
3016 3020 3029 3031 3030 3034 3043 3046 3053 3058 3057 3057 3057 3055 3057 3062 3064 3065 3070 3075 3078 3082 3085 3088 3090 3093 3095 3098 3101 3104 3106 3108 3111 3113 3115 3117 3119 3120 3121 3122 3122 3123 3124 3124
3008 3017 3017 3018 3028 3031 3036 3039 3044 3047 3050 3053 3055 3053 3054 3056 3060 3062 3066 3069 3073 3077 3081 3083 3086 3087 3089 3093 3096 3098 3101 3103 3105 3107 3109 3111 3113 3114 3116 3117 3117 3118 3118 3118
3000 3004 3012 3022 3025 3024 3024 3029 3035 3042 3047 3045 3050 3049 3054 3054 3055 3058 3062 3065 3069 3072 3075 3078 3080 3082 3085 3088 3090 3092 3095 3097 3099 3101 3103 3105 3107 3110 3111 3111 3111 3112 3112 3111
2994 2997 2998 2999 3000 3013 3019 3022 3028 3036 3040 3039 3041 3046 3048 3050 3053 3054 3058 3061 3064 3067 3069 3071 3074 3077 3079 3081 3084 3087 3090 3092 3094 3096 3099 3100 3102 3104 3104 3105 3105 3105 3105 3104
2989 2989 2994 2996 3004 3005 3007 3012 3017 3024 3022 3033 3033 3040 3043 3046 3050 3051 3053 3056 3058 3061 3063 3066 3067 3070 3073 3076 3080 3082 3085 3087 3089 3091 3093 3095 3096 3097 3098 3099 3099 3099 3098 3096
2980 2982 2990 2992 3001 3001 3002 3007 3013 3016 3018 3026 3031 3035 3038 3041 3044 3046 3048 3050 3053 3055 3057 3059 3061 3064 3067 3070 3073 3076 3079 3082 3084 3086 3088 3089 3090 3091 3091 3092 3092 3090 3089 3086
2973 2975 2984 2986 2994 2995 2998 2999 3002 3008 3013 3018 3020 3027 3029 3031 3036 3040 3042 3044 3047 3049 3050 3052 3054 3056 3060 3064 3067 3071 3074 3077 3079 3081 3082 3083 3083 3084 3084 3084 3082 3081 3080 3078
2964 2971 2978 2979 2985 2989 2984 2994 2997 3001 3005 3010 3014 3016 3019 3025 3030 3031 3033 3036 3039 3042 3043 3045 3047 3050 3054 3058 3061 3065 3068 3070 3072 3073 3074 3075 3076 3077 3076 3075 3074 3073 3071 3069
2960 2967 2972 2974 2979 2979 2979 2984 2988 2990 2991 2999 3005 3007 3012 3015 3020 3022 3023 3027 3030 3033 3036 3038 3042 3045 3049 3052 3055 3059 3062 3063 3065 3066 3067 3068 3069 3069 3068 3067 3067 3065 3063 3061
2955 2961 2968 2970 2972 2973 2974 2976 2982 2987 2985 2991 2996 2996 3002 3006 3010 3012 3016 3019 3021 3024 3027 3032 3036 3039 3043 3046 3049 3052 3055 3056 3058 3059 3060 3061 3061 3061 3061 3060 3059 3057 3055 3052
2949 2953 2956 2963 2967 2967 2967 2972 2976 2982 2980 2983 2986 2990 2993 2997 3003 3004 3008 3011 3014 3018 3022 3026 3030 3034 3038 3040 3043 3045 3048 3050 3051 3052 3053 3054 3054 3054 3054 3053 3051 3048 3045 3042
2939 2946 2950 2956 2961 2964 2960 2963 2969 2972 2973 2977 2980 2983 2986 2990 2994 2998 3001 3003 3007 3011 3014 3018 3023 3027 3031 3033 3036 3038 3040 3042 3043 3045 3046 3047 3048 3047 3046 3044 3041 3039 3037 3034
2936 2937 2941 2948 2950 2951 2954 2959 2965 2967 2969 2972 2976 2979 2982 2986 2990 2993 2996 2998 3002 3005 3009 3012 3016 3019 3022 3025 3026 3029 3032 3036 3037 3038 3039 3041 3040 3039 3037 3035 3032 3031 3028 3024
2928 2932 2935 2943 2945 2948 2951 2956 2958 2961 2965 2970 2973 2978 2982 2984 2986 2987 2989 2991 2994 2997 3001 3005 3008 3010 3013 3019 3024 3027 3029 3030 3032 3034 3034 3033 3032 3030 3028 3027 3024 3021 3018 3015
2925 2928 2931 2935 2940 2944 2946 2948 2952 2956 2960 2964 2969 2974 2977 2978 2979 2981 2983 2986 2988 2992 2995 2999 3004 3009 3014 3018 3020 3021 3024 3027 3027 3027 3026 3025 3024 3022 3020 3018 3016 3012 3009 3005
2920 2923 2927 2931 2934 2937 2939 2942 2945 2950 2955 2959 2963 2967 2969 2970 2972 2974 2978 2981 2984 2987 2992 2999 3004 3008 3011 3013 3016 3019 3020 3020 3021 3021 3019 3017 3016 3014 3011 3008 3006 3003 2999 2997
Wind_Speed
41 40 42 36 32 22 21 27 22 23 21 29 29 27 28 22 24 22 24 25 24 24 23 23 24 23 22 21 20 20 19 19 20 19 18 18 17 16 16 15 15 14 14 14
34 43 39 24 28 25 21 23 24 22 28 22 23 27 22 28 26 26 23 22 23 23 22 22 23 24 24 23 21 21 21 21 20 20 21 21 20 19 19 17 17 16 16 16
32 29 32 31 28 28 22 24 24 17 19 23 17 19 26 30 29 27 25 24 23 23 23 23 22 23 24 24 23 23 23 22 21 22 24 23 22 22 21 20 19 18 18 18
26 28 32 34 34 36 26 19 18 20 18 11 25 11 27 32 31 30 28 26 25 25 26 26 27 26 25 24 23 24 24 25 25 25 24 25 24 24 23 21 20 19 19 20
25 31 32 38 41 36 20 21 20 15 16 9 15 10 14 22 32 33 31 29 26 24 25 26 26 28 29 28 27 26 26 26 27 26 27 27 26 26 23 21 20 19 20 21
21 24 28 33 35 36 25 24 20 16 10 6 18 18 19 27 24 30 33 30 27 26 25 25 23 24 28 31 31 30 28 27 26 28 28 28 27 24 23 22 22 23 22 19
26 26 33 29 28 29 30 25 7 6 5 8 18 16 19 15 23 28 27 28 27 25 24 25 22 20 21 26 30 31 30 29 28 28 28 28 25 25 23 24 23 24 21 18
26 17 29 30 28 30 31 37 11 9 8 9 12 11 14 27 17 25 27 25 24 25 24 25 23 20 20 23 27 29 30 30 30 30 30 29 27 26 25 25 25 22 20 16
30 20 31 27 31 31 31 36 23 8 6 10 14 19 23 20 25 34 25 23 28 26 26 26 24 22 21 22 24 27 29 31 32 32 31 30 28 27 27 26 24 22 18 17
23 22 20 31 28 29 31 32 21 11 9 7 11 15 21 25 33 32 31 33 31 28 27 26 24 23 22 23 24 26 28 29 31 31 31 30 30 29 28 26 23 20 19 18
23 25 21 30 36 32 29 30 24 22 18 7 8 10 23 21 15 28 34 28 30 29 27 24 23 22 23 24 25 25 25 26 27 28 29 29 29 28 25 23 22 21 21 22
36 20 16 40 24 29 36 33 39 21 14 16 10 21 11 19 23 14 22 25 25 25 24 25 25 26 26 26 25 26 25 25 26 27 27 27 25 24 23 23 23 24 25 27
41 23 14 14 20 31 39 40 36 36 20 26 15 14 23 16 21 25 26 25 25 26 27 27 29 29 27 28 28 28 27 27 27 26 25 25 25 25 25 25 26 27 29 30
43 29 32 22 32 28 29 30 36 33 25 24 30 25 31 28 20 20 21 22 23 25 27 29 28 29 30 29 29 28 27 27 26 26 26 26 26 26 27 27 28 30 32 33
41 42 34 36 28 29 37 49 43 40 52 33 32 30 20 23 22 23 23 23 23 26 26 27 30 31 30 30 29 29 29 28 27 26 26 27 27 28 28 29 31 33 33 33
37 31 38 32 30 23 25 30 42 50 54 43 30 29 23 26 31 29 29 28 28 29 29 30 31 31 31 31 32 31 30 29 28 28 28 28 29 29 30 31 32 32 33 34
43 38 31 32 28 21 14 30 33 31 37 38 42 44 33 34 36 33 32 35 34 33 34 33 33 33 33 33 33 32 31 30 30 30 30 30 30 30 31 32 32 32 33 35
46 45 35 19 27 8 35 34 36 37 38 37 40 30 36 38 35 32 31 30 32 35 36 36 35 34 34 34 34 33 33 31 30 30 30 30 30 30 29 30 32 32 32 32
42 35 26 20 22 10 30 32 37 41 47 41 35 35 33 31 30 32 34 31 33 34 35 36 34 33 34 35 34 34 33 32 31 30 29 29 28 29 31 31 30 30 31 33
32 42 32 14 9 11 25 17 27 26 35 41 37 42 43 40 35 35 33 33 34 34 34 33 32 34 35 35 35 33 32 31 30 29 28 28 29 28 27 28 29 31 34 35
31 32 35 32 12 15 26 27 23 21 22 23 26 28 30 33 33 31 31 33 34 31 32 34 34 34 35 35 34 34 32 31 30 30 29 28 25 24 26 29 32 34 35 34
31 23 21 23 18 17 23 27 28 26 29 24 21 23 29 31 30 27 25 25 28 32 34 35 36 36 36 36 35 33 33 33 30 30 23 19 22 26 29 32 33 33 32 32
20 26 28 24 24 10 14 22 19 21 17 18 15 16 19 23 23 21 19 21 26 32 36 39 39 38 37 37 38 38 31 28 20 15 17 23 27 30 32 32 31 31 33 34
29 32 33 32 33 32 32 21 19 24 23 22 17 14 16 19 25 30 33 36 35 38 41 39 40 42 42 34 25 23 17 11 14 20 24 27 30 31 31 32 33 34 34 36
30 31 29 35 31 30 36 29 25 25 25 21 21 22 25 29 30 30 28 28 33 36 39 40 36 25 20 21 14 7 11 18 22 25 27 29 30 31 32 33 34 34 36 38
26 27 29 28 30 30 27 29 26 24 22 22 25 26 28 30 28 29 26 29 33 37 33 21 19 20 12 5 10 17 19 22 24 27 28 29 31 33 33 34 34 35 37 39
Wind_Direction
203 202 206 207 205 205 207 203 204 207 223 220 222 216 237 230 226 223 222 222 222 224 230 230 233 236 238 239 239 241 240 239 241 242 241 241 243 246 251 257 263 267 269 271
204 210 209 207 208 210 198 206 209 200 217 212 217 221 234 230 229 228 224 222 223 226 225 228 232 233 234 235 238 237 237 238 238 237 239 241 244 246 251 257 262 266 270 275
210 214 204 204 205 203 205 204 206 214 222 212 206 229 219 232 231 229 227 228 229 231 233 232 231 231 231 233 233 234 235 238 237 235 239 243 246 250 254 259 264 266 269 274
215 215 211 206 207 207 207 196 206 210 211 209 217 242 225 236 232 230 229 230 234 238 238 237 237 235 233 232 232 231 233 236 237 237 240 244 247 252 257 261 264 268 274 277
202 208 210 214 215 213 210 214 213 217 211 215 214 229 230 209 232 232 231 232 236 238 238 236 235 238 238 234 232 233 233 237 239 240 240 245 247 256 263 266 266 270 275 280
209 212 204 222 215 215 204 205 209 202 200 231 221 213 236 228 239 234 233 235 238 241 238 232 225 234 236 235 235 238 241 244 245 243 244 246 252 258 263 266 270 276 281 281
205 213 207 205 196 188 198 178 153 195 208 234 224 221 222 219 231 231 230 234 236 235 230 219 229 234 233 230 231 233 235 236 238 240 243 247 251 251 256 263 272 279 281 281
189 204 206 203 202 197 191 189 174 189 197 207 222 225 226 232 232 227 229 227 222 225 226 227 237 242 237 230 228 230 234 236 239 241 241 243 245 250 257 264 270 272 275 270
193 202 204 206 197 201 198 208 210 220 197 222 214 234 246 226 230 234 234 237 233 232 231 237 243 242 234 230 229 230 232 234 236 237 239 242 246 251 257 262 263 264 257 256
203 198 206 205 198 199 203 199 199 200 167 208 201 225 225 234 235 240 238 236 234 236 238 241 242 240 235 232 230 229 230 232 234 236 238 240 244 248 251 253 253 250 252 258
206 200 194 197 200 198 191 194 207 214 215 211 227 233 247 238 243 240 234 236 236 236 239 240 240 239 235 233 232 231 231 232 233 234 237 240 242 245 246 244 245 249 256 263
195 204 198 203 208 201 214 209 202 204 193 227 256 241 249 243 225 212 213 224 229 235 240 243 243 241 239 236 235 234 233 232 232 232 234 236 237 237 239 242 248 254 260 267
195 203 154 168 218 213 210 206 213 215 220 217 214 222 236 239 222 222 223 222 226 231 234 237 239 241 241 238 235 232 230 229 228 227 229 232 234 237 242 248 254 261 267 273
204 205 204 198 213 210 211 209 213 204 218 218 219 229 231 234 226 214 214 223 230 234 234 235 237 239 237 234 230 228 227 225 226 228 230 233 237 243 249 255 262 268 274 280
207 214 213 219 224 214 222 218 214 202 222 209 223 223 227 230 238 242 244 241 243 244 239 242 241 238 234 231 229 227 226 227 229 232 236 240 245 251 258 265 271 275 280 287
205 219 218 226 220 221 214 221 217 225 230 226 230 233 237 232 234 240 244 243 248 246 248 245 241 235 231 229 226 226 227 230 234 238 243 249 255 261 267 271 276 282 288 296
202 211 213 225 219 223 220 215 222 231 234 233 229 235 234 237 247 247 251 251 251 247 246 249 241 234 229 226 226 227 230 234 239 245 250 255 260 264 270 276 282 288 293 296
211 211 210 212 205 207 236 233 234 238 240 234 236 235 241 248 253 248 247 242 245 245 245 243 237 233 228 226 227 230 234 239 244 250 254 259 265 271 278 283 286 288 289 291
216 211 207 207 206 232 236 233 226 227 235 234 232 240 243 244 246 243 242 231 232 236 242 238 233 229 227 228 231 235 239 242 246 250 256 262 270 276 280 282 284 285 289 293
216 218 209 202 207 218 228 235 228 234 243 245 243 245 246 247 240 246 243 232 227 231 232 233 229 227 226 229 232 235 239 243 247 252 259 266 273 276 278 281 287 291 294 298
203 207 208 215 217 239 231 228 235 207 241 246 246 247 246 243 242 245 238 235 233 234 232 227 224 226 229 232 234 237 240 243 248 254 261 268 272 278 283 286 291 296 299 300
193 184 197 203 208 235 225 219 211 231 242 246 247 239 227 227 228 227 228 226 228 226 222 223 225 226 228 230 233 234 237 244 250 264 264 276 282 282 287 292 296 298 298 298
199 201 199 203 221 215 224 224 222 228 228 241 212 209 217 220 221 216 237 243 234 230 227 221 220 222 224 226 228 232 242 258 255 270 286 277 281 287 292 294 294 295 297 299
204 212 218 221 228 231 238 243 229 222 226 214 217 245 244 242 250 248 242 237 232 222 217 218 219 223 228 234 240 253 243 272 292 273 274 281 287 289 291 292 294 297 299 300
206 208 210 217 225 232 231 229 221 213 219 232 235 234 238 239 237 237 235 230 214 210 213 219 224 226 222 235 231 265 274 262 267 275 281 285 288 289 292 294 297 298 301 302
202 206 204 214 218 221 216 214 217 216 229 242 234 237 245 233 228 223 207 204 205 208 211 211 205 225 216 262 253 252 261 271 279 283 286 287 289 290 292 294 296 299 301 303